History for Miami, FL

Monday, January 14, 2013 — View Current Conditions

Jump to Data:

Date:
Airport Code:
Recently Viewed Airport Codes: KMIA
Daily Summary
  Actual Average Record
Temperature
Mean Temperature 75°F 68°F  
Max Temperature 80°F 76°F 86°F (1980)
Min Temperature 70°F 60°F 37°F (1964)
Degree Days
Heating Degree Days 0 2  
Month to date heating degree days 0 28  
Since 1 July heating degree days 16 65  
Cooling Degree Days 10 5  
Month to date cooling degree days 155 70  
Year to date cooling degree days 155 70  
Growing Degree Days 25 (Base 50)    
Moisture
Dew Point 62°F    
Average Humidity 67    
Maximum Humidity 79    
Minimum Humidity 54    
Precipitation
Precipitation 0.00 in 0.05 in 1.44 in (1974)
Month to date precipitation 0.20 0.71  
Year to date precipitation 0.20 0.71  
Snow
Snow 0.00 in in in ()
Month to date snowfall 0.0  
Since 1 July snowfall 0.0  
Snow Depth 0.00 in    
Sea Level Pressure
Sea Level Pressure 30.16 in    
Wind
Wind Speed 9 mph (ESE)    
Max Wind Speed 18 mph    
Max Gust Speed 23 mph    
Visibility 10 miles    
Events      
T = Trace of Precipitation, MM = Missing Value Source: NWS Daily Summary

Show full METARS

(help) - Comma Delimited File

Hourly Observations

Time(EST) Temperature Dew Point Humidity Sea Level Pressure Visibility Wind Direction Wind Speed Gust Speed Precipitation Events Conditions
12:53 AM 75.0°F 62.1°F 64% 30.14 in 10.0 miles ESE 10.4 mph - N/A   Overcast
1:53 AM 73.0°F 62.1°F 68% 30.14 in 10.0 miles ESE 8.1 mph - N/A   Mostly Cloudy
2:53 AM 73.9°F 62.1°F 66% 30.14 in 10.0 miles ESE 6.9 mph - N/A   Mostly Cloudy
3:53 AM 73.0°F 60.1°F 64% 30.14 in 10.0 miles ESE 4.6 mph - N/A   Mostly Cloudy
4:53 AM 71.1°F 61.0°F 70% 30.13 in 10.0 miles East 5.8 mph - N/A   Mostly Cloudy
5:53 AM 71.1°F 61.0°F 70% 30.14 in 10.0 miles East 5.8 mph - N/A   Mostly Cloudy
6:53 AM 72.0°F 62.1°F 71% 30.16 in 10.0 miles ESE 9.2 mph - N/A   Mostly Cloudy
7:53 AM 73.0°F 61.0°F 66% 30.17 in 10.0 miles East 8.1 mph - N/A   Mostly Cloudy
8:53 AM 75.9°F 60.1°F 58% 30.17 in 10.0 miles ESE 13.8 mph - N/A   Mostly Cloudy
9:53 AM 77.0°F 61.0°F 58% 30.18 in 10.0 miles ESE 13.8 mph - N/A   Mostly Cloudy
10:53 AM 79.0°F 62.1°F 56% 30.17 in 10.0 miles ESE 13.8 mph - N/A   Mostly Cloudy
11:53 AM 78.1°F 61.0°F 56% 30.16 in 10.0 miles SE 12.7 mph 23.0 mph N/A   Mostly Cloudy
12:53 PM 79.0°F 61.0°F 54% 30.15 in 10.0 miles SSE 11.5 mph - N/A   Mostly Cloudy
1:53 PM 78.8°F 62.6°F 57% 30.13 in 10.0 miles East 13.8 mph - N/A   Mostly Cloudy
2:53 PM 79.0°F 62.1°F 56% 30.14 in 10.0 miles SE 10.4 mph 20.7 mph N/A   Mostly Cloudy
3:53 PM 77.0°F 62.1°F 60% 30.14 in 10.0 miles ESE 12.7 mph - N/A   Mostly Cloudy
4:53 PM 75.2°F 62.6°F 65% 30.15 in 10.0 miles ESE 10.4 mph - N/A   Mostly Cloudy
5:53 PM 75.0°F 63.0°F 66% 30.17 in 10.0 miles ESE 10.4 mph - N/A   Scattered Clouds
6:53 PM 73.9°F 64.0°F 71% 30.17 in 10.0 miles ESE 8.1 mph - N/A   Scattered Clouds
7:53 PM 73.0°F 64.0°F 73% 30.18 in 10.0 miles East 4.6 mph - N/A   Scattered Clouds
8:53 PM 73.0°F 64.0°F 73% 30.17 in 10.0 miles East 5.8 mph - N/A   Scattered Clouds
9:53 PM 72.0°F 64.0°F 76% 30.17 in 10.0 miles East 6.9 mph - N/A   Partly Cloudy
10:53 PM 73.0°F 64.0°F 73% 30.16 in 10.0 miles East 6.9 mph - N/A   Partly Cloudy
11:53 PM 71.1°F 64.0°F 78% 30.15 in 10.0 miles East 5.8 mph - N/A   Partly Cloudy